Content
SEND FEEDBACK

Daily
Averages
Monthly
Summary
United States of America

WRIGHTSVILLE BEACH, NORTH CAROLINA


Home > North America > United States > North Carolina
Elevation: 25 feet     Latitude: 34 16N     Longitude: 077 54W

WEATHER
 
SELECT A DAY
Number of Records: 208,938;   Date Range: 1/1/95 - 8/12/14
 
SHARE

PRINT THIS DATA

[ ← Previous Day ]
WEATHER ALMANAC - NOVEMBER 12, 2013
[ Next Day → ]
[ °C ]   °F
Weather ElementAverageHighLow
Temperature52.5 °F69.1 °F (12:53 pm)37 °F (11:53 pm)
Dewpoint35 °F44.1 °F (6:53 am)21.9 °F (9:53 pm)
Humidity55.3 %86 % (5:53 am)28 % (2:53 pm)
Barometer30.13 in30.37 in (11:53 pm)30.02 in (1:53 pm)
Wind Speed10.5 mph26.5 mph (9:53 pm)
Wind Gust39.1 mph (9:53 pm)
Weather ElementAverage
Visibility10 mi
Wind DirectionESE (110.4 °)

Weather ElementTotal
Precipitation---
Heating Degree Days12 (Base 65)
Growing Degree Days3.1 (Base 50)
Averaged from 23 records on November 12, 2013
WEATHER CONDITIONS BREAKOUT
WIND DIRECTION BREAKOUT
WEATHER BY HOUR - NOVEMBER 12, 2013
[ °C ]   °F
Local TimeTemperatureDewpointHumidityBarometerVisibilityWind DirectionWind SpeedGust SpeedPrecipitationEventsConditions
1:53 AM42.1 °F37.9 °F85 %30.13 in10.0 miCalmClear
2:53 AM42.1 °F37.0 °F82 %30.12 in10.0 miCalmClear
3:53 AM42.1 °F37.9 °F85 %30.09 in10.0 miCalmScattered Clouds
4:53 AM44.1 °F39.0 °F82 %30.10 in10.0 miCalmMostly Cloudy
5:53 AM46.9 °F43.0 °F86 %30.10 in10.0 miCalmOvercast
6:53 AM48.9 °F44.1 °F83 %30.10 in10.0 miCalmMostly Cloudy
7:53 AM51.1 °F44.1 °F77 %30.11 in10.0 miCalmMostly Cloudy
8:53 AM55.9 °F42.1 °F60 %30.10 in10.0 miWSW (240°)4.6 mphClear
9:53 AM62.1 °F39.9 °F44 %30.10 inWSW (250°)5.8 mphClear
10:53 AM66.0 °F37.0 °F34 %30.08 in10.0 miWNW (290°)8.1 mphClear
11:53 AM66.9 °F36.0 °F32 %30.05 in10.0 miWest (270°)8.1 mphClear
12:53 PM69.1 °F37.0 °F31 %30.03 in10.0 miNNW (330°)13.8 mphPartly Cloudy
1:53 PM69.1 °F37.0 °F31 %30.02 in10.0 miNorth (360°)11.5 mphScattered Clouds
2:53 PM68.0 °F34.0 °F28 %30.02 in10.0 miNorth (360°)10.4 mph19.6 mphMostly Cloudy
3:53 PM66.0 °F35.1 °F32 %30.03 in10.0 miNorth (360°)13.8 mphOvercast
4:53 PM61.0 °F36.0 °F39 %30.06 in10.0 miNorth (10°)17.3 mph24.2 mphOvercast
5:53 PM54.0 °F37.0 °F53 %30.12 in10.0 miNorth (10°)18.4 mph35.7 mphOvercast
6:53 PM48.9 °F30.9 °F50 %30.19 in10.0 miNorth (10°)20.7 mph34.5 mphOvercast
7:53 PM45.0 °F26.1 °F48 %30.24 in10.0 miNorth (10°)18.4 mph33.4 mphOvercast
8:53 PM42.1 °F23.0 °F47 %30.27 in10.0 miNorth (10°)25.3 mph35.7 mphOvercast
9:53 PM39.9 °F21.9 °F49 %30.32 in10.0 miNorth (10°)26.5 mph39.1 mphOvercast
10:53 PM39.0 °F23.0 °F53 %30.35 in10.0 miNorth (10°)19.6 mph32.2 mphOvercast
11:53 PM37.0 °F25.0 °F62 %30.37 in10.0 miNorth (10°)18.4 mph28.8 mph0.00 inOvercast
Hourly data recorded from KILM, located miles away from Wrightsville Beach, North Carolina







STORIES FROM OUR PARTNERS